Mount Airy, NC

4:41 AM EDT on September 22, 2019 (GMT -0400)
Mount Airy-Surry County

Weather History for KMWK - July, 2019

Change the Weather History Date:

Wednesday, July 24, 2019

  Actual Average (WUND) Record (WUND)
Temperature  
Mean Temperature 70 °F -  
Max Temperature 81 °F - - (-1)
Min Temperature 60 °F - - (-1)
Cooling Degree Days 6    
Growing Degree Days 20 (Base 50)    
Moisture  
Dew Point 57 °F    
Average Humidity 64    
Maximum Humidity 91    
Minimum Humidity 31    
Precipitation  
Precipitation 0.00 in - - ()
Sea Level Pressure  
Sea Level Pressure 30.05 in    
Wind  
Wind Speed 2 mph (NNW)    
Max Wind Speed 7 mph    
Max Gust Speed -    
Visibility 10 miles    
Events      
Averages and records for this station are not official NWS values.
T = Trace of Precipitation, MM = Missing Value Source: NWS Daily Summary

Daily Weather History Graph

Daily Weather History Graph

Search for Another Location

Airport or City:

Astronomy

Jul. 24, 2019 Rise Set
Actual Time 6:22 AM EDT 8:34 PM EDT
Civil Twilight 5:53 AM EDT 9:03 PM EDT
Nautical Twilight 5:17 AM EDT 9:39 PM EDT
Astronomical Twilight 4:38 AM EDT 10:18 PM EDT
Moon 12:32 AM EDT (7/24) 1:20 PM EDT (7/24)
Length of Visible Light 15h 10m
Length of Day
14h 12m
Waning Gibbous, 54% of the Moon is Illuminated
Jul 24
Waning Gibbous
Jul 24
Last Quarter
Jul 31
New
Aug 7
First Quarter
Aug 15
Full

Hourly Weather History & Observations

Time (EDT) Temp. Heat Index Dew Point Humidity Pressure Visibility Wind Dir Wind Speed Gust Speed Precip Events Conditions
12:00 AM 63.9 °F - 61.2 °F 91% 30.01 in 10.0 mi Calm Calm - N/A   Clear
12:15 AM 63.9 °F - 61.2 °F 91% 30.00 in 10.0 mi Calm Calm - N/A   Clear
12:40 AM 63.5 °F - 61.0 °F 91% 30.00 in 10.0 mi Calm Calm - N/A   Clear
12:55 AM 63.3 °F - 60.8 °F 91% 30.01 in 10.0 mi Calm Calm - N/A   Clear
1:15 AM 63.7 °F - 60.4 °F 89% 30.00 in 10.0 mi NW 4.6 mph - N/A   Clear
1:40 AM 64.4 °F - 60.4 °F 87% 30.00 in 10.0 mi NW 5.8 mph - N/A   Clear
2:00 AM 64.2 °F - 60.1 °F 86% 30.00 in 10.0 mi NW 5.8 mph - N/A   Clear
2:20 AM 63.9 °F - 59.9 °F 87% 29.99 in 10.0 mi NW 5.8 mph - N/A   Clear
2:40 AM 64.0 °F - 59.9 °F 86% 29.99 in 10.0 mi NNW 5.8 mph - N/A   Clear
3:00 AM 64.4 °F - 59.5 °F 84% 29.99 in 10.0 mi NNW 4.6 mph - N/A   Clear
3:20 AM 64.2 °F - 59.2 °F 84% 29.99 in 10.0 mi NW 5.8 mph - N/A   Clear
3:40 AM 64.4 °F - 59.0 °F 83% 29.99 in 10.0 mi NNW 4.6 mph - N/A   Clear
4:20 AM 64.4 °F - 58.1 °F 80% 29.99 in 10.0 mi NW 5.8 mph - N/A   Clear
4:40 AM 63.9 °F - 57.6 °F 80% 30.00 in 10.0 mi NW 5.8 mph - N/A   Clear
5:00 AM 63.7 °F - 57.2 °F 79% 30.00 in 10.0 mi NW 4.6 mph - N/A   Clear
5:20 AM 63.9 °F - 56.7 °F 77% 30.01 in 10.0 mi NNW 5.8 mph - N/A   Clear
5:40 AM 64.0 °F - 56.3 °F 76% 30.02 in 10.0 mi NW 5.8 mph - N/A   Clear
6:00 AM 63.5 °F - 56.1 °F 77% 30.02 in 10.0 mi Calm Calm - N/A   Clear
6:20 AM 63.3 °F - 55.8 °F 76% 30.03 in 10.0 mi Calm Calm - N/A   Clear
6:40 AM 61.7 °F - 56.1 °F 82% 30.04 in 10.0 mi Calm Calm - N/A   Clear
7:00 AM 60.3 °F - 56.5 °F 87% 30.05 in 10.0 mi Calm Calm - N/A   Clear
7:20 AM 62.2 °F - 57.4 °F 84% 30.06 in 10.0 mi Calm Calm - N/A   Clear
7:40 AM 63.0 °F - 58.3 °F 85% 30.06 in 10.0 mi Calm Calm - N/A   Clear
8:00 AM 65.8 °F - 59.0 °F 79% 30.07 in 10.0 mi Calm Calm - N/A   Clear
8:20 AM 67.8 °F - 59.0 °F 73% 30.07 in 10.0 mi Calm Calm - N/A   Clear
8:40 AM 68.7 °F - 59.7 °F 73% 30.08 in 10.0 mi NNE 3.5 mph - N/A   Clear
9:00 AM 69.8 °F - 59.7 °F 70% 30.08 in 10.0 mi NNE 3.5 mph - N/A   Clear
9:20 AM 70.7 °F - 59.5 °F 68% 30.09 in 10.0 mi NE 3.5 mph - N/A   Clear
9:40 AM 72.5 °F - 60.1 °F 65% 30.09 in 10.0 mi NNE 3.5 mph - N/A   Clear
10:00 AM 72.7 °F - 60.4 °F 65% 30.09 in 10.0 mi Calm Calm - N/A   Clear
10:20 AM 73.4 °F - 60.3 °F 63% 30.09 in 10.0 mi NW 4.6 mph - N/A   Clear
10:40 AM 73.6 °F - 59.5 °F 61% 30.09 in 10.0 mi NW 4.6 mph - N/A   Clear
11:00 AM 74.8 °F - 59.4 °F 58% 30.09 in 10.0 mi North 3.5 mph - N/A   Clear
11:20 AM 75.0 °F - 58.6 °F 57% 30.09 in 10.0 mi North 3.5 mph - N/A   Clear
11:40 AM 76.3 °F - 60.4 °F 58% 30.09 in 10.0 mi Calm Calm - N/A   Clear
12:00 PM 76.6 °F - 59.0 °F 54% 30.08 in 10.0 mi NW 5.8 mph - N/A   Clear
12:20 PM 77.2 °F - 59.5 °F 54% 30.07 in 10.0 mi NW 4.6 mph - N/A   Clear
12:40 PM 77.4 °F - 58.5 °F 52% 30.07 in 10.0 mi NNE 4.6 mph - N/A   Scattered Clouds
1:00 PM 78.3 °F - 56.5 °F 47% 30.07 in 10.0 mi Calm Calm - N/A   Clear
1:20 PM 78.1 °F - 58.1 °F 50% 30.07 in 10.0 mi NNE 4.6 mph - N/A   Clear
1:40 PM 79.0 °F - 58.3 °F 49% 30.06 in 10.0 mi NNW 4.6 mph - N/A   Clear
2:00 PM 77.9 °F - 55.2 °F 45% 30.06 in 10.0 mi Calm Calm - N/A   Scattered Clouds
2:20 PM 79.2 °F - 54.9 °F 43% 30.05 in 10.0 mi Calm Calm - N/A   Scattered Clouds
2:40 PM 78.8 °F - 55.0 °F 44% 30.05 in 10.0 mi Calm Calm - N/A   Clear
3:00 PM 79.7 °F - 57.4 °F 46% 30.04 in 10.0 mi NNW 4.6 mph - N/A   Clear
3:20 PM 80.1 °F 80.4 °F 56.8 °F 45% 30.04 in 10.0 mi West 3.5 mph - N/A   Clear
3:40 PM 80.1 °F 80.2 °F 55.4 °F 43% 30.04 in 10.0 mi NW 3.5 mph - N/A   Scattered Clouds
4:00 PM 80.6 °F 80.4 °F 54.7 °F 41% 30.04 in 10.0 mi North 4.6 mph - N/A   Clear
4:20 PM 80.6 °F 80.3 °F 53.4 °F 39% 30.04 in 10.0 mi NE 3.5 mph - N/A   Clear
4:40 PM 80.8 °F 80.4 °F 53.6 °F 39% 30.04 in 10.0 mi Calm Calm - N/A   Clear
5:00 PM 81.0 °F - 51.6 °F 36% 30.04 in 10.0 mi WNW 5.8 mph - N/A   Clear
5:20 PM 78.8 °F - 51.8 °F 39% 30.04 in 10.0 mi North 4.6 mph - N/A   Clear
5:40 PM 80.6 °F - 49.8 °F 34% 30.04 in 10.0 mi NNE 5.8 mph - N/A   Clear
6:00 PM 80.2 °F - 46.8 °F 31% 30.04 in 10.0 mi North 6.9 mph - N/A   Clear
6:20 PM 80.1 °F - 47.3 °F 32% 30.04 in 10.0 mi North 4.6 mph - N/A   Clear
6:40 PM 79.7 °F - 48.4 °F 33% 30.05 in 10.0 mi North 3.5 mph - N/A   Clear
7:00 PM 79.2 °F - 50.0 °F 36% 30.05 in 10.0 mi North 3.5 mph - N/A   Clear
7:20 PM 78.4 °F - 51.3 °F 39% 30.06 in 10.0 mi North 3.5 mph - N/A   Clear
7:40 PM 77.4 °F - 52.2 °F 41% 30.06 in 10.0 mi North 3.5 mph - N/A   Clear
8:00 PM 76.3 °F - 53.6 °F 45% 30.07 in 10.0 mi Calm Calm - N/A   Clear
8:20 PM 75.0 °F - 56.7 °F 53% 30.07 in 10.0 mi Calm Calm - N/A   Clear
8:40 PM 73.6 °F - 56.1 °F 54% 30.08 in 10.0 mi Calm Calm - N/A   Clear
9:00 PM 72.5 °F - 57.0 °F 58% 30.08 in 10.0 mi Calm Calm - N/A   Clear
9:20 PM 70.7 °F - 56.7 °F 61% 30.09 in 10.0 mi Calm Calm - N/A   Clear
9:40 PM 69.6 °F - 58.1 °F 67% 30.10 in 10.0 mi Calm Calm - N/A   Clear
10:00 PM 68.5 °F - 58.3 °F 70% 30.10 in 10.0 mi Calm Calm - N/A   Clear
10:20 PM 67.8 °F - 57.6 °F 70% 30.10 in 10.0 mi Calm Calm - N/A   Clear
10:40 PM 68.0 °F - 57.2 °F 68% 30.10 in 10.0 mi NNW 3.5 mph - N/A   Clear
11:00 PM 65.8 °F - 57.9 °F 76% 30.10 in 10.0 mi Calm Calm - N/A   Clear
11:20 PM 65.1 °F - 58.5 °F 79% 30.10 in 10.0 mi Calm Calm - N/A   Clear
11:40 PM 64.6 °F - 58.3 °F 80% 30.10 in 10.0 mi Calm Calm - N/A   Clear